SCP
-0 -0 -0 -0 -0 -0 -0 0 0 0 0 0 0 0 0 0 0 0 0 0 0 0 0 0 0 0 0 0 0 0 0 0 0 0 0 0 0 0 0 0 0 0 0 0
-0 -0 -0 -0 -0 0 0 0 0 -0 0 0 0 0 0 0 0 0 0 0 0 0 0 0 0 0 0 0 0 0 0 0 0 0 0 -0 0 0 0 0 0 0 0 0
0 -0 -0 -0 -0 -0 0 0 0 0 0 0 0 0 0 0 0 0 0 0 0 0 0 0 0 0 0 0 0 0 0 0 0 0 0 0 0 0 0 -0 0 0 0 0
0 -0 -0 -0 -0 -0 0 0 0 0 0 0 0 0 0 0 0 0 0 0 0 0 0 0 0 0 0 0 0 0 0 0 0 0 0 0 -0 0 0 0 0 0 0 0
0 0 -0 -0 -0 -0 0 0 0 0 0 0 0 0 0 0 0 0 0 0 0 0 0 0 0 0 0 0 0 0 0 0 0 0 0 0 0 0 0 0 0 0 0 0
0 0 0 -0 -0 0 0 0 0 0 0 0 0 0 0 0 0 0 0 0 0 0 0 0 0 0 0 0 0 0 0 0 0 0 0 0 0 0 0 0 0 0 0 0
0 0 0 0 0 0 0 0 0 0 0 0 0 0 0 0 0 0 0 0 0 0 0 0 0 0 0 0 0 0 0 0 0 0 0 0 0 0 0 0 0 0 0 0
0 0 0 0 0 0 0 0 0 0 0 0 0 0 0 0 0 0 0 0 0 0 0 0 0 0 0 -0 0 0 0 0 0 0 0 0 0 0 0 0 0 0 0 0
0 0 0 0 0 0 0 0 0 0 0 0 0 0 0 0 0 0 0 0 0 0 0 0 0 0 0 0 0 0 -0 0 0 0 0 0 0 0 0 0 0 0 0 0
0 0 0 0 0 0 0 0 0 0 0 0 0 0 0 0 0 0 0 0 0 0 0 0 0 0 0 0 0 0 0 0 0 0 0 0 0 0 0 0 0 0 0 0
0 0 0 0 0 0 0 0 0 0 0 0 0 0 0 0 0 0 0 0 0 0 0 -0 -0 -0 -0 -0 -0 0 0 0 0 0 0 0 0 0 0 0 0 0 0 0
0 0 0 0 0 0 0 0 0 0 0 0 0 0 0 0 0 0 0 0 -0 0 -0 -0 -0 -0 -0 -0 0 0 0 0 0 0 0 0 0 0 0 0 0 0 0 0
0 0 0 0 0 0 0 0 0 0 0 0 0 0 0 0 0 0 0 0 0 -0 0 -0 -0 0 0 0 0 0 0 0 0 0 0 0 0 0 0 0 0 0 0 0
0 0 0 0 0 0 0 0 0 0 0 0 0 0 -0 0 0 0 -0 0 0 0 0 -0 0 0 0 0 0 0 0 0 0 0 0 0 0 0 0 0 0 0 0 0
-0 -0 0 0 0 0 0 0 0 0 0 0 0 0 0 0 0 -0 -0 0 0 0 0 0 0 0 0 0 0 0 0 0 0 0 0 0 0 0 0 0 0 0 0 0
-0 -0 -0 -0 0 0 0 0 0 0 0 0 0 0 0 0 0 -0 0 0 0 0 0 0 0 0 0 0 0 0 0 0 0 0 0 0 0 0 0 0 0 0 0 0
0 0 0 0 0 0 0 0 0 0 0 0 0 0 0 0 0 0 0 0 0 0 0 0 0 0 0 0 0 0 0 0 0 0 0 0 0 0 0 0 0 0 0 0
0 0 0 0 0 0 0 0 0 0 0 0 0 0 0 -0 -0 0 0 0 0 0 0 0 0 0 0 0 0 0 0 0 0 0 0 0 0 0 0 0 0 0 0 0
0 0 0 0 0 0 0 0 0 0 0 0 0 0 0 0 -0 0 0 0 0 0 0 0 0 0 0 0 0 0 0 0 0 0 0 0 0 0 0 0 0 0 0 0
0 0 0 0 0 0 0 0 0 0 0 0 0 0 0 0 0 0 0 0 0 0 0 0 0 0 0 0 0 0 0 0 0 0 0 0 0 0 0 0 0 0 0 0
0 0 0 0 0 0 0 0 0 0 0 0 0 0 0 0 0 0 0 0 0 0 0 0 0 0 0 0 0 0 0 0 0 0 0 0 0 0 0 0 0 0 0 0
0 0 0 0 0 0 0 0 0 0 0 0 0 0 0 0 0 0 0 0 0 0 0 0 0 0 0 0 0 0 0 0 0 0 0 0 0 0 0 0 0 0 0 0
0 0 0 0 0 0 0 0 0 0 0 0 0 0 0 0 0 0 0 0 0 0 0 0 0 0 0 0 0 0 0 0 0 0 0 0 0 0 0 0 0 0 0 0
0 0 0 0 0 0 0 0 0 0 0 0 0 0 0 0 0 0 0 0 0 0 0 0 0 0 0 0 0 0 0 0 0 0 0 0 0 0 0 0 0 0 0 0
0 0 0 0 0 0 0 0 0 0 0 0 0 0 0 0 0 0 0 0 0 0 0 0 0 1 0 0 0 0 0 0 0 0 0 0 0 0 0 0 0 0 0 0
0 0 0 0 0 0 0 0 0 0 0 0 0 0 0 0 0 0 0 0 0 0 0 0 0 0 0 0 0 0 0 0 0 0 0 0 0 0 0 0 0 0 0 0
0 0 0 0 0 0 0 0 0 0 0 0 0 0 0 0 0 0 0 0 0 0 0 0 0 0 0 0 0 0 0 0 0 0 0 0 0 0 0 0 0 0 0 0
Wind_Speed_500mb
48 51 52 56 55 45 21 16 8 5 3 5 9 6 1 12 15 16 6 8 8 10 15 14 9 10 7 11 15 6 9 4 4 11 16 14 8 4 4 7 9 5 5 6
47 48 49 48 50 50 48 29 11 2 7 3 8 20 3 9 15 17 15 14 15 14 14 10 12 14 36 37 16 8 10 7 7 17 17 22 15 14 11 2 9 12 12 5
45 48 48 44 36 37 38 14 7 10 4 25 14 12 15 10 10 6 4 13 24 12 8 15 8 17 20 36 16 16 14 8 3 3 13 15 24 19 25 13 8 2 6 17
45 48 49 43 32 21 28 14 11 19 8 18 26 25 15 18 8 9 18 5 13 6 12 11 17 6 10 20 17 7 10 1 12 16 18 23 24 27 26 19 7 5 11 7
45 48 48 43 33 12 26 15 16 25 24 20 14 11 11 16 15 9 12 15 30 30 16 13 14 12 12 3 5 6 6 6 11 11 18 23 26 29 22 25 22 22 18 6
45 46 44 40 33 23 12 24 10 10 20 17 6 10 9 11 15 12 8 31 16 23 24 30 15 10 11 9 6 5 4 7 8 7 17 17 20 9 25 29 19 10 9 5
41 41 37 33 29 24 17 23 20 11 9 18 1 24 14 18 21 7 20 28 18 20 26 26 18 16 20 23 25 21 6 6 3 5 13 9 7 22 33 31 20 18 14 21
39 36 31 26 22 15 8 12 14 12 8 32 27 5 11 17 10 8 5 23 9 16 20 8 9 10 2 11 13 14 14 6 5 6 5 9 10 12 10 7 6 10 11 28
35 30 27 23 18 11 2 5 8 5 16 16 26 30 43 9 11 7 23 22 19 13 4 3 6 6 4 5 5 8 14 14 9 5 4 5 5 14 27 14 5 20 21 29
29 26 23 20 16 11 1 3 10 7 10 18 28 15 12 27 23 6 20 12 14 9 4 4 5 5 7 6 6 6 1 6 6 4 4 4 13 37 20 12 6 29 32 28
24 23 20 17 12 7 5 11 17 13 9 19 20 22 26 29 32 7 20 8 15 13 8 8 7 7 7 10 10 6 6 4 4 6 7 1 19 15 10 10 29 29 28 24
22 20 17 14 7 2 11 15 6 7 5 2 9 4 8 12 16 16 24 18 21 17 6 6 7 6 7 1 1 5 6 8 4 7 6 23 35 42 35 27 27 22 20 20
19 18 15 11 4 5 14 17 19 12 8 24 19 11 4 11 4 13 9 12 10 6 5 7 6 6 7 3 4 4 5 7 6 10 13 25 36 27 25 20 18 21 20 18
17 16 14 10 4 8 15 7 16 23 11 8 7 10 2 6 3 6 9 4 8 7 3 6 3 3 11 4 2 5 5 7 9 11 20 29 24 23 20 21 18 24 20 29
16 14 12 8 2 8 10 9 13 15 7 8 8 3 10 4 6 5 2 9 5 7 7 7 4 2 10 13 7 7 9 3 6 4 21 16 26 16 21 22 19 21 21 19
12 12 9 4 10 16 19 9 2 3 1 5 7 6 10 3 3 6 6 7 5 14 10 6 2 5 3 2 4 25 32 27 28 26 35 37 31 26 23 24 18 21 21 17
7 8 4 12 15 11 12 7 4 3 6 4 9 10 7 10 6 9 12 9 8 12 14 12 14 5 1 2 1 33 39 35 31 25 32 30 22 27 15 20 21 20 17 13
5 7 14 22 21 18 13 15 8 10 4 4 7 4 11 15 11 9 17 16 19 11 8 14 3 11 6 3 36 41 39 30 28 32 26 39 29 19 19 18 21 20 19 15
17 22 25 18 12 9 4 9 6 7 3 6 7 4 3 14 12 12 19 10 3 16 20 13 8 6 8 18 42 46 39 31 36 30 26 23 26 24 23 18 14 26 16 15
32 19 10 4 1 5 3 4 3 3 0 5 8 14 6 18 18 8 7 14 6 5 12 15 9 8 6 26 33 41 34 35 37 45 37 28 25 19 21 16 16 20 22 12
12 7 5 7 5 5 2 3 6 12 8 11 12 17 19 19 5 5 10 6 5 6 10 10 7 7 26 32 35 36 34 36 26 21 17 15 23 21 26 20 23 23 19 13
8 10 10 4 5 3 6 3 6 8 5 2 3 5 17 10 12 4 10 3 4 9 4 2 4 7 36 44 43 40 44 35 29 20 20 21 18 23 24 26 27 25 22 13
12 6 2 4 3 3 5 7 5 5 10 3 7 8 6 1 4 9 3 6 8 12 4 7 7 34 46 43 40 51 45 43 35 31 27 22 19 20 27 30 29 23 19 10
3 1 6 5 7 7 8 6 24 20 28 16 13 17 6 3 6 4 3 7 10 7 7 9 7 49 50 47 56 58 53 44 41 32 25 22 23 26 30 31 25 19 20 13
4 5 4 9 13 16 33 29 41 37 34 38 21 13 14 9 5 5 6 5 6 7 7 11 28 46 51 47 65 60 53 47 41 32 26 25 28 32 34 28 25 22 19 14
2 4 8 20 13 29 29 30 29 31 28 17 12 10 7 6 4 4 7 6 7 8 17 35 22 10 52 43 76 60 51 41 35 29 28 29 30 36 35 30 24 22 20 12
4 6 10 18 9 16 19 20 22 21 17 9 6 5 3 9 5 7 5 6 8 40 42 39 24 17 21 30 48 51 47 39 30 26 26 29 32 34 34 30 27 18 17 13
Wind_Direction_500mb
359 359 -0 357 356 0 355 9 332 34 108 254 222 236 76 340 27 8 339 332 322 321 18 360 34 96 69 21 36 68 331 126 4 301 315 53 30 233 337 144 255 255 137 89
358 359 359 0 357 357 359 344 297 351 107 5 339 332 83 83 17 7 18 343 5 12 10 3 15 106 57 50 45 28 323 7 12 341 347 359 345 327 357 9 32 55 347 96
356 356 356 357 359 349 350 349 333 4 311 13 3 345 8 102 117 307 24 323 324 339 326 308 341 88 68 62 50 18 38 14 64 266 293 319 323 327 66 76 76 343 345 97
355 354 354 354 357 3 6 5 15 5 330 359 349 0 356 333 356 61 0 324 337 338 24 43 25 62 65 36 348 64 93 357 339 319 312 308 323 50 51 75 204 67 145 126
353 354 353 353 357 24 42 24 2 341 302 325 332 312 314 305 2 45 20 23 18 53 58 64 47 59 55 165 251 51 34 296 315 310 309 334 67 35 102 58 67 117 136 160
348 350 352 353 358 9 50 19 357 348 291 314 284 255 272 60 56 17 28 50 35 41 358 349 2 344 304 211 184 104 83 6 346 296 334 320 48 11 87 84 59 101 61 190
343 346 349 353 357 10 19 25 357 306 294 312 93 10 32 60 52 21 38 55 51 351 340 329 321 310 298 273 110 117 94 4 339 316 17 56 21 8 98 83 57 48 23 49
340 343 346 349 352 2 68 32 15 336 310 317 23 31 345 29 78 283 72 88 50 343 332 345 345 316 235 273 145 120 131 76 355 86 284 129 55 11 14 104 52 18 14 49
335 340 344 348 347 352 285 339 352 327 304 13 358 353 20 2 351 239 88 78 22 14 313 327 247 256 73 121 46 44 86 109 108 3 352 62 359 344 343 93 42 335 57 52
331 338 343 347 348 353 355 24 28 357 300 17 18 29 347 359 357 322 53 9 3 23 313 284 267 322 325 18 91 63 17 29 65 64 165 99 338 10 39 64 285 63 67 61
331 335 341 346 349 4 85 60 38 24 322 36 33 33 33 24 29 15 341 358 13 13 8 11 324 102 272 52 63 49 86 73 350 9 31 229 4 34 75 127 62 58 61 61
329 332 337 343 349 73 121 87 81 326 297 311 5 314 41 58 21 0 12 78 44 19 41 348 327 320 48 59 91 346 51 148 171 121 165 115 85 92 91 85 70 63 66 73
327 328 333 336 329 186 171 78 40 56 303 316 249 202 170 74 349 11 23 45 21 42 16 296 283 15 25 81 199 117 128 195 106 94 74 74 102 96 92 88 90 74 70 95
326 325 330 330 277 190 186 173 79 47 326 269 108 140 52 186 198 63 34 81 353 359 326 294 295 344 359 317 262 67 50 133 124 93 118 122 109 112 114 100 98 96 100 92
329 327 333 331 201 159 150 142 100 45 12 317 298 97 162 319 142 178 283 340 330 316 283 229 250 15 17 351 353 42 67 2 106 150 150 138 137 121 122 101 85 109 117 88
337 330 346 97 140 131 126 90 53 252 236 340 319 164 167 187 190 208 217 280 350 311 314 313 308 94 98 336 348 121 100 86 129 108 113 119 112 99 102 100 107 123 105 94
346 338 83 125 131 119 79 73 309 257 201 348 297 146 170 187 177 214 224 230 269 270 303 274 262 135 160 283 189 126 116 113 113 125 133 126 129 109 93 99 107 112 90 95
26 110 122 123 101 77 54 12 24 128 95 327 291 206 158 188 210 226 217 224 221 219 233 289 304 151 236 282 134 133 130 130 130 113 132 127 122 119 116 128 132 124 121 91
116 122 124 102 61 60 324 14 100 151 74 333 290 314 146 172 233 245 180 219 264 243 192 221 262 226 213 215 154 148 148 157 142 134 130 153 150 148 142 154 169 155 141 116
118 115 70 67 234 315 274 29 66 71 287 289 267 317 304 195 191 230 224 172 220 257 222 218 198 250 124 143 170 166 158 163 154 145 151 154 162 169 166 154 168 162 150 119
74 47 71 332 98 91 272 211 245 199 215 214 242 258 276 303 308 291 211 206 268 232 223 171 208 216 197 177 162 158 159 162 177 178 171 167 175 180 163 142 147 145 148 134
96 102 104 8 301 267 295 209 200 253 263 239 244 301 223 281 335 288 327 310 240 251 111 185 244 250 189 169 162 160 158 157 148 153 156 161 169 167 153 152 154 150 142 144
101 32 65 327 274 47 226 183 204 216 194 230 40 345 348 330 280 289 185 265 252 283 288 231 218 151 160 169 165 164 162 161 148 149 148 156 145 153 151 157 160 152 138 143
39 230 344 194 188 221 232 331 38 30 25 18 354 339 291 306 264 284 224 276 319 275 279 249 214 176 178 177 172 163 158 157 150 151 152 153 154 152 154 163 159 151 149 154
12 306 253 219 293 13 36 31 37 23 15 11 351 311 286 262 185 220 3 276 261 278 283 305 286 194 184 180 164 158 151 150 147 151 155 155 161 156 158 160 156 149 150 147
25 255 284 338 359 30 25 24 35 16 5 6 357 352 351 322 122 257 262 255 292 17 359 350 345 1 341 204 148 143 145 147 149 155 159 163 163 165 161 159 166 160 169 150
245 258 261 275 326 43 26 22 16 357 21 22 9 293 303 321 228 233 239 12 19 20 356 359 348 338 72 51 120 137 142 144 149 159 163 164 167 169 167 167 168 177 171 185
Wind_Speed_850mb
48 51 52 56 55 45 21 16 8 5 3 5 9 6 1 12 15 16 6 8 8 10 15 14 9 10 7 11 15 6 9 4 4 11 16 14 8 4 4 7 9 5 5 6
47 48 49 48 50 50 48 29 11 2 7 3 8 20 3 9 15 17 15 14 15 14 14 10 12 14 36 37 16 8 10 7 7 17 17 22 15 14 11 2 9 12 12 5
45 48 48 44 36 37 38 14 7 10 4 25 14 12 15 10 10 6 4 13 24 12 8 15 8 17 20 36 16 16 14 8 3 3 13 15 24 19 25 13 8 2 6 17
45 48 49 43 32 21 28 14 11 19 8 18 26 25 15 18 8 9 18 5 13 6 12 11 17 6 10 20 17 7 10 1 12 16 18 23 24 27 26 19 7 5 11 7
45 48 48 43 33 12 26 15 16 25 24 20 14 11 11 16 15 9 12 15 30 30 16 13 14 12 12 3 5 6 6 6 11 11 18 23 26 29 22 25 22 22 18 6
45 46 44 40 33 23 12 24 10 10 20 17 6 10 9 11 15 12 8 31 16 23 24 30 15 10 11 9 6 5 4 7 8 7 17 17 20 9 25 29 19 10 9 5
41 41 37 33 29 24 17 23 20 11 9 18 1 24 14 18 21 7 20 28 18 20 26 26 18 16 20 23 25 21 6 6 3 5 13 9 7 22 33 31 20 18 14 21
39 36 31 26 22 15 8 12 14 12 8 32 27 5 11 17 10 8 5 23 9 16 20 8 9 10 2 11 13 14 14 6 5 6 5 9 10 12 10 7 6 10 11 28
35 30 27 23 18 11 2 5 8 5 16 16 26 30 43 9 11 7 23 22 19 13 4 3 6 6 4 5 5 8 14 14 9 5 4 5 5 14 27 14 5 20 21 29
29 26 23 20 16 11 1 3 10 7 10 18 28 15 12 27 23 6 20 12 14 9 4 4 5 5 7 6 6 6 1 6 6 4 4 4 13 37 20 12 6 29 32 28
24 23 20 17 12 7 5 11 17 13 9 19 20 22 26 29 32 7 20 8 15 13 8 8 7 7 7 10 10 6 6 4 4 6 7 1 19 15 10 10 29 29 28 24
22 20 17 14 7 2 11 15 6 7 5 2 9 4 8 12 16 16 24 18 21 17 6 6 7 6 7 1 1 5 6 8 4 7 6 23 35 42 35 27 27 22 20 20
19 18 15 11 4 5 14 17 19 12 8 24 19 11 4 11 4 13 9 12 10 6 5 7 6 6 7 3 4 4 5 7 6 10 13 25 36 27 25 20 18 21 20 18
17 16 14 10 4 8 15 7 16 23 11 8 7 10 2 6 3 6 9 4 8 7 3 6 3 3 11 4 2 5 5 7 9 11 20 29 24 23 20 21 18 24 20 29
16 14 12 8 2 8 10 9 13 15 7 8 8 3 10 4 6 5 2 9 5 7 7 7 4 2 10 13 7 7 9 3 6 4 21 16 26 16 21 22 19 21 21 19
12 12 9 4 10 16 19 9 2 3 1 5 7 6 10 3 3 6 6 7 5 14 10 6 2 5 3 2 4 25 32 27 28 26 35 37 31 26 23 24 18 21 21 17
7 8 4 12 15 11 12 7 4 3 6 4 9 10 7 10 6 9 12 9 8 12 14 12 14 5 1 2 1 33 39 35 31 25 32 30 22 27 15 20 21 20 17 13
5 7 14 22 21 18 13 15 8 10 4 4 7 4 11 15 11 9 17 16 19 11 8 14 3 11 6 3 36 41 39 30 28 32 26 39 29 19 19 18 21 20 19 15
17 22 25 18 12 9 4 9 6 7 3 6 7 4 3 14 12 12 19 10 3 16 20 13 8 6 8 18 42 46 39 31 36 30 26 23 26 24 23 18 14 26 16 15
32 19 10 4 1 5 3 4 3 3 0 5 8 14 6 18 18 8 7 14 6 5 12 15 9 8 6 26 33 41 34 35 37 45 37 28 25 19 21 16 16 20 22 12
12 7 5 7 5 5 2 3 6 12 8 11 12 17 19 19 5 5 10 6 5 6 10 10 7 7 26 32 35 36 34 36 26 21 17 15 23 21 26 20 23 23 19 13
8 10 10 4 5 3 6 3 6 8 5 2 3 5 17 10 12 4 10 3 4 9 4 2 4 7 36 44 43 40 44 35 29 20 20 21 18 23 24 26 27 25 22 13
12 6 2 4 3 3 5 7 5 5 10 3 7 8 6 1 4 9 3 6 8 12 4 7 7 34 46 43 40 51 45 43 35 31 27 22 19 20 27 30 29 23 19 10
3 1 6 5 7 7 8 6 24 20 28 16 13 17 6 3 6 4 3 7 10 7 7 9 7 49 50 47 56 58 53 44 41 32 25 22 23 26 30 31 25 19 20 13
4 5 4 9 13 16 33 29 41 37 34 38 21 13 14 9 5 5 6 5 6 7 7 11 28 46 51 47 65 60 53 47 41 32 26 25 28 32 34 28 25 22 19 14
2 4 8 20 13 29 29 30 29 31 28 17 12 10 7 6 4 4 7 6 7 8 17 35 22 10 52 43 76 60 51 41 35 29 28 29 30 36 35 30 24 22 20 12
4 6 10 18 9 16 19 20 22 21 17 9 6 5 3 9 5 7 5 6 8 40 42 39 24 17 21 30 48 51 47 39 30 26 26 29 32 34 34 30 27 18 17 13
Wind_Direction_850mb
359 359 -0 357 356 0 355 9 332 34 108 254 222 236 76 340 27 8 339 332 322 321 18 360 34 96 69 21 36 68 331 126 4 301 315 53 30 233 337 144 255 255 137 89
358 359 359 0 357 357 359 344 297 351 107 5 339 332 83 83 17 7 18 343 5 12 10 3 15 106 57 50 45 28 323 7 12 341 347 359 345 327 357 9 32 55 347 96
356 356 356 357 359 349 350 349 333 4 311 13 3 345 8 102 117 307 24 323 324 339 326 308 341 88 68 62 50 18 38 14 64 266 293 319 323 327 66 76 76 343 345 97
355 354 354 354 357 3 6 5 15 5 330 359 349 0 356 333 356 61 0 324 337 338 24 43 25 62 65 36 348 64 93 357 339 319 312 308 323 50 51 75 204 67 145 126
353 354 353 353 357 24 42 24 2 341 302 325 332 312 314 305 2 45 20 23 18 53 58 64 47 59 55 165 251 51 34 296 315 310 309 334 67 35 102 58 67 117 136 160
348 350 352 353 358 9 50 19 357 348 291 314 284 255 272 60 56 17 28 50 35 41 358 349 2 344 304 211 184 104 83 6 346 296 334 320 48 11 87 84 59 101 61 190
343 346 349 353 357 10 19 25 357 306 294 312 93 10 32 60 52 21 38 55 51 351 340 329 321 310 298 273 110 117 94 4 339 316 17 56 21 8 98 83 57 48 23 49
340 343 346 349 352 2 68 32 15 336 310 317 23 31 345 29 78 283 72 88 50 343 332 345 345 316 235 273 145 120 131 76 355 86 284 129 55 11 14 104 52 18 14 49
335 340 344 348 347 352 285 339 352 327 304 13 358 353 20 2 351 239 88 78 22 14 313 327 247 256 73 121 46 44 86 109 108 3 352 62 359 344 343 93 42 335 57 52
331 338 343 347 348 353 355 24 28 357 300 17 18 29 347 359 357 322 53 9 3 23 313 284 267 322 325 18 91 63 17 29 65 64 165 99 338 10 39 64 285 63 67 61
331 335 341 346 349 4 85 60 38 24 322 36 33 33 33 24 29 15 341 358 13 13 8 11 324 102 272 52 63 49 86 73 350 9 31 229 4 34 75 127 62 58 61 61
329 332 337 343 349 73 121 87 81 326 297 311 5 314 41 58 21 0 12 78 44 19 41 348 327 320 48 59 91 346 51 148 171 121 165 115 85 92 91 85 70 63 66 73
327 328 333 336 329 186 171 78 40 56 303 316 249 202 170 74 349 11 23 45 21 42 16 296 283 15 25 81 199 117 128 195 106 94 74 74 102 96 92 88 90 74 70 95
326 325 330 330 277 190 186 173 79 47 326 269 108 140 52 186 198 63 34 81 353 359 326 294 295 344 359 317 262 67 50 133 124 93 118 122 109 112 114 100 98 96 100 92
329 327 333 331 201 159 150 142 100 45 12 317 298 97 162 319 142 178 283 340 330 316 283 229 250 15 17 351 353 42 67 2 106 150 150 138 137 121 122 101 85 109 117 88
337 330 346 97 140 131 126 90 53 252 236 340 319 164 167 187 190 208 217 280 350 311 314 313 308 94 98 336 348 121 100 86 129 108 113 119 112 99 102 100 107 123 105 94
346 338 83 125 131 119 79 73 309 257 201 348 297 146 170 187 177 214 224 230 269 270 303 274 262 135 160 283 189 126 116 113 113 125 133 126 129 109 93 99 107 112 90 95
26 110 122 123 101 77 54 12 24 128 95 327 291 206 158 188 210 226 217 224 221 219 233 289 304 151 236 282 134 133 130 130 130 113 132 127 122 119 116 128 132 124 121 91
116 122 124 102 61 60 324 14 100 151 74 333 290 314 146 172 233 245 180 219 264 243 192 221 262 226 213 215 154 148 148 157 142 134 130 153 150 148 142 154 169 155 141 116
118 115 70 67 234 315 274 29 66 71 287 289 267 317 304 195 191 230 224 172 220 257 222 218 198 250 124 143 170 166 158 163 154 145 151 154 162 169 166 154 168 162 150 119
74 47 71 332 98 91 272 211 245 199 215 214 242 258 276 303 308 291 211 206 268 232 223 171 208 216 197 177 162 158 159 162 177 178 171 167 175 180 163 142 147 145 148 134
96 102 104 8 301 267 295 209 200 253 263 239 244 301 223 281 335 288 327 310 240 251 111 185 244 250 189 169 162 160 158 157 148 153 156 161 169 167 153 152 154 150 142 144
101 32 65 327 274 47 226 183 204 216 194 230 40 345 348 330 280 289 185 265 252 283 288 231 218 151 160 169 165 164 162 161 148 149 148 156 145 153 151 157 160 152 138 143
39 230 344 194 188 221 232 331 38 30 25 18 354 339 291 306 264 284 224 276 319 275 279 249 214 176 178 177 172 163 158 157 150 151 152 153 154 152 154 163 159 151 149 154
12 306 253 219 293 13 36 31 37 23 15 11 351 311 286 262 185 220 3 276 261 278 283 305 286 194 184 180 164 158 151 150 147 151 155 155 161 156 158 160 156 149 150 147
25 255 284 338 359 30 25 24 35 16 5 6 357 352 351 322 122 257 262 255 292 17 359 350 345 1 341 204 148 143 145 147 149 155 159 163 163 165 161 159 166 160 169 150
245 258 261 275 326 43 26 22 16 357 21 22 9 293 303 321 228 233 239 12 19 20 356 359 348 338 72 51 120 137 142 144 149 159 163 164 167 169 167 167 168 177 171 185